GW6532 Weather Reports


time (UTC)temp
C
wind
direction
speed
KPH
gust
KPH
rain 1hr
cm
rain 24hr
cm
rain mn
cm
humidity
%
barometer
mb
20260504160251 25 295 6.4 9.7 0.00 0.00 0.00 38 1011.5
20260504150716 23 299 4.8 9.7 0.00 0.00 0.00 47 1012.0
20260504150213 23 333 3.2 11.3 0.00 0.00 0.00 49 1012.1
20260504141142 21 315 3.2 8.0 0.00 0.00 0.00 51 1012.3
20260504140639 21 291 4.8 9.7 0.00 0.00 0.00 49 1012.5
20260504140134 21 309 6.4 8.0 0.00 0.00 0.00 49 1012.6
20260504130602 19 303 3.2 6.4 0.00 0.00 0.00 54 1012.5
20260504110450 15 299 3.2 4.8 0.00 0.00 0.00 60 1011.8
20260504100413 15 279 3.2 3.2 0.00 0.00 0.00 58 1012.1
20260504081806 15 278 4.8 6.4 0.00 0.00 0.00 53 1011.7
20260504081302 15 296 3.2 4.8 0.00 0.00 0.00 53 1011.8
20260504080759 15 273 3.2 6.4 0.00 0.00 0.00 52 1011.9
20260504080255 15 290 4.8 4.8 0.00 0.00 0.00 53 1011.8
20260504070223 16 231 0.0 4.8 0.00 0.00 0.00 51 1012.2
20260504060143 15 194 1.6 3.2 0.00 0.00 0.00 50 1013.0
20260504050611 15 288 3.2 3.2 0.00 0.00 0.00 49 1013.6
20260504050108 15 320 1.6 3.2 0.00 0.00 0.00 49 1013.5
20260504045605 15 282 0.0 3.2 0.00 0.00 0.00 48 1013.5
20260504045100 15 310 3.2 3.2 0.00 0.00 0.00 49 1013.5
20260504044558 15 293 3.2 3.2 0.00 0.00 0.00 48 1013.3
20260504044055 15 248 0.0 3.2 0.00 0.00 0.00 48 1013.4
20260504043552 15 286 3.2 4.8 0.00 0.00 0.00 47 1013.5
20260504043049 15 162 0.0 6.4 0.00 0.00 0.00 48 1013.5
20260504042546 15 306 0.0 4.8 0.00 0.00 0.00 48 1013.7
20260504042043 15 284 3.2 3.2 0.00 0.00 0.00 48 1013.6
20260504041539 15 280 3.2 3.2 0.00 0.00 0.00 48 1013.4
20260504041035 15 335 1.6 4.8 0.00 0.00 0.00 48 1013.8
20260504040533 15 317 3.2 3.2 0.00 0.00 0.00 49 1013.8
20260504040029 15 261 0.0 3.2 0.00 0.00 0.00 51 1013.9
20260504035526 15 286 3.2 3.2 0.00 0.00 0.00 50 1014.1
20260504035022 14 291 0.0 1.6 0.00 0.00 0.00 51 1013.9
20260504034520 15 261 0.0 0.0 0.00 0.00 0.00 50 1014.0
20260504034017 15 271 0.0 1.6 0.00 0.00 0.00 49 1014.1
20260504033515 15 275 1.6 3.2 0.00 0.00 0.00 48 1014.0
20260504033012 15 274 0.0 1.6 0.00 0.00 0.00 49 1014.1
20260504032509 15 277 1.6 3.2 0.00 0.00 0.00 49 1014.1
20260504032005 15 266 0.0 4.8 0.00 0.00 0.00 48 1014.1
20260504031502 15 349 0.0 1.6 0.00 0.00 0.00 48 1014.5
20260504030959 15 251 0.0 3.2 0.00 0.00 0.00 46 1014.2
20260504030456 15 259 1.6 3.2 0.00 0.00 0.00 47 1014.0
20260504025952 15 269 1.6 3.2 0.00 0.00 0.00 46 1014.2
20260504025449 15 206 0.0 0.0 0.00 0.00 0.00 49 1014.1
20260504024946 15 257 1.6 3.2 0.00 0.00 0.00 48 1014.2
20260504024443 15 248 0.0 1.6 0.00 0.00 0.00 47 1014.1
20260504023940 15 162 0.0 0.0 0.00 0.00 0.00 47 1014.0
20260504023437 15 300 0.0 0.0 0.00 0.00 0.00 45 1014.2
20260504022932 16 300 0.0 1.6 0.00 0.00 0.00 45 1014.2
20260504022429 16 264 0.0 4.8 0.00 0.00 0.00 44 1014.2
20260504021925 16 10 3.2 3.2 0.00 0.00 0.00 44 1014.2
20260504021423 16 280 0.0 1.6 0.00 0.00 0.00 44 1014.1
20260504020920 16 302 1.6 3.2 0.00 0.00 0.00 42 1014.1
20260504020416 16 292 3.2 3.2 0.00 0.00 0.00 43 1013.8
20260504015913 16 316 0.0 3.2 0.00 0.00 0.00 42 1013.7
20260504015409 17 305 3.2 3.2 0.00 0.00 0.00 41 1013.9
20260504014905 17 254 3.2 3.2 0.00 0.00 0.00 41 1013.9
20260504014401 17 155 1.6 3.2 0.00 0.00 0.00 41 1013.6
20260504013859 17 274 3.2 4.8 0.00 0.00 0.00 40 1013.8
20260504013357 17 307 0.0 3.2 0.00 0.00 0.00 40 1013.8
20260504012853 17 316 0.0 3.2 0.00 0.00 0.00 39 1013.8
20260504012351 17 287 3.2 3.2 0.00 0.00 0.00 38 1013.7
20260504011848 18 273 1.6 4.8 0.00 0.00 0.00 37 1013.6
20260504011344 18 219 0.0 6.4 0.00 0.00 0.00 38 1013.7
20260504010841 17 255 0.0 3.2 0.00 0.00 0.00 39 1013.5
20260504010336 18 211 0.0 3.2 0.00 0.00 0.00 38 1013.5
20260504005833 18 210 1.6 3.2 0.00 0.00 0.00 37 1013.7
20260504005330 18 208 3.2 3.2 0.00 0.00 0.00 36 1013.8
20260504004827 18 269 0.0 3.2 0.00 0.00 0.00 35 1013.8
20260504004325 18 288 1.6 6.4 0.00 0.00 0.00 34 1013.7
20260504003821 19 300 0.0 3.2 0.00 0.00 0.00 34 1013.9
20260504003318 19 258 1.6 4.8 0.00 0.00 0.00 33 1013.9
20260504002815 19 303 4.8 4.8 0.00 0.00 0.00 32 1013.7
20260504002312 20 264 0.0 3.2 0.00 0.00 0.00 31 1013.8
20260504001809 20 8 1.6 4.8 0.00 0.00 0.00 31 1013.9
20260504001306 20 291 4.8 6.4 0.00 0.00 0.00 31 1013.8
20260504000803 20 259 0.0 6.4 0.00 0.00 0.00 31 1013.9
20260504000300 20 278 4.8 4.8 0.00 0.00 0.00 29 1013.9
20260503235758 20 292 6.4 12.9 0.00 0.00 0.00 29 1014.0
20260503235255 20 287 6.4 12.9 0.00 0.00 0.00 30 1014.1
20260503234753 21 266 4.8 6.4 0.00 0.00 0.00 30 1014.0
20260503234251 21 240 3.2 12.9 0.00 0.00 0.00 28 1014.0
20260503233748 21 257 1.6 9.7 0.00 0.00 0.00 28 1014.1
20260503233243 22 331 6.4 6.4 0.00 0.00 0.00 27 1014.1
20260503232741 22 218 4.8 8.0 0.00 0.00 0.00 27 1014.4
20260503232238 22 248 3.2 9.7 0.00 0.00 0.00 27 1014.3
20260503231736 22 286 4.8 9.7 0.00 0.00 0.00 26 1014.5
20260503231232 22 275 3.2 8.0 0.00 0.00 0.00 27 1014.3
20260503230728 23 236 0.0 8.0 0.00 0.00 0.00 26 1014.7
20260503230226 22 217 3.2 16.1 0.00 0.00 0.00 25 1014.6
20260503225723 22 275 8.0 11.3 0.00 0.00 0.00 26 1014.6
20260503225223 22 332 4.8 9.7 0.00 0.00 0.00 27 1014.6
20260503224720 22 293 8.0 9.7 0.00 0.00 0.00 26 1014.8
20260503224218 23 241 3.2 14.5 0.00 0.00 0.00 26 1014.6
20260503223716 23 277 4.8 12.9 0.00 0.00 0.00 24 1014.9
20260503223213 23 260 3.2 9.7 0.00 0.00 0.00 27 1015.0
20260503222709 23 246 0.0 9.7 0.00 0.00 0.00 25 1015.2
20260503222207 22 226 4.8 9.7 0.00 0.00 0.00 27 1015.1
20260503221706 23 305 4.8 6.4 0.00 0.00 0.00 27 1015.2
20260503221203 22 305 9.7 11.3 0.00 0.00 0.00 26 1015.2
20260503220659 22 320 6.4 14.5 0.00 0.00 0.00 25 1015.3
20260503220156 23 299 4.8 9.7 0.00 0.00 0.00 27 1015.4
20260503215653 23 264 3.2 9.7 0.00 0.00 0.00 27 1015.4
20260503215149 23 235 3.2 14.5 0.00 0.00 0.00 27 1015.5
20260503214648 22 263 6.4 8.0 0.00 0.00 0.00 27 1015.6
20260503214144 22 271 3.2 12.9 0.00 0.00 0.00 28 1015.8
20260503213643 22 279 3.2 8.0 0.00 0.00 0.00 26 1015.9
20260503213139 23 203 3.2 9.7 0.00 0.00 0.00 27 1015.9
20260503212637 23 309 6.4 11.3 0.00 0.00 0.00 30 1016.1
20260503212134 23 286 8.0 8.0 0.00 0.00 0.00 26 1015.8
20260503211632 23 289 3.2 11.3 0.00 0.00 0.00 27 1016.1
20260503211127 22 288 4.8 9.7 0.00 0.00 0.00 28 1016.2
20260503210624 22 208 4.8 12.9 0.00 0.00 0.00 27 1016.5
20260503210120 22 264 3.2 9.7 0.00 0.00 0.00 29 1016.8
20260503205616 22 306 3.2 9.7 0.00 0.00 0.00 29 1016.6
20260503205113 22 319 11.3 11.3 0.00 0.00 0.00 28 1016.5
20260503204609 22 304 4.8 8.0 0.00 0.00 0.00 28 1016.7
20260503204107 22 310 8.0 9.7 0.00 0.00 0.00 27 1016.8
20260503203604 22 292 11.3 14.5 0.00 0.00 0.00 26 1017.0
20260503203101 22 292 9.7 11.3 0.00 0.00 0.00 28 1017.3
20260503202559 22 284 9.7 9.7 0.00 0.00 0.00 28 1017.4
20260503202056 22 293 4.8 9.7 0.00 0.00 0.00 30 1017.5
20260503201554 22 293 8.0 14.5 0.00 0.00 0.00 30 1017.6
20260503201051 22 298 3.2 16.1 0.00 0.00 0.00 28 1017.8
20260503200547 22 287 9.7 17.7 0.00 0.00 0.00 28 1017.8
20260503200044 22 235 3.2 8.0 0.00 0.00 0.00 29 1018.1
20260503195541 21 284 6.4 8.0 0.00 0.00 0.00 28 1018.2
20260503195038 21 289 8.0 11.3 0.00 0.00 0.00 30 1018.1
20260503194535 22 211 1.6 6.4 0.00 0.00 0.00 29 1018.4
20260503194035 21 306 4.8 12.9 0.00 0.00 0.00 31 1018.6
20260503193532 21 311 8.0 9.7 0.00 0.00 0.00 29 1018.8
20260503193027 21 316 8.0 14.5 0.00 0.00 0.00 30 1018.6
20260503192524 22 306 9.7 9.7 0.00 0.00 0.00 31 1018.9
20260503192020 21 239 4.8 8.0 0.00 0.00 0.00 31 1018.8
20260503191517 21 260 4.8 9.7 0.00 0.00 0.00 30 1018.8
20260503191013 21 303 6.4 11.3 0.00 0.00 0.00 30 1018.9
20260503190510 21 283 6.4 9.7 0.00 0.00 0.00 32 1019.1
20260503190008 21 202 6.4 8.0 0.00 0.00 0.00 30 1019.0
20260503185504 21 200 3.2 11.3 0.00 0.00 0.00 31 1019.3
20260503185003 21 320 3.2 6.4 0.00 0.00 0.00 33 1019.5
20260503184500 20 299 1.6 14.5 0.00 0.00 0.00 32 1019.6
20260503183956 21 290 4.8 6.4 0.00 0.00 0.00 33 1019.7
20260503183453 20 257 0.0 9.7 0.00 0.00 0.00 31 1019.8
20260503182950 20 260 3.2 9.7 0.00 0.00 0.00 33 1019.9
20260503182449 20 346 8.0 9.7 0.00 0.00 0.00 30 1020.1
20260503181946 20 100 1.6 11.3 0.00 0.00 0.00 35 1020.2
20260503181443 20 305 1.6 8.0 0.00 0.00 0.00 33 1020.3
20260503180939 20 275 8.0 9.7 0.00 0.00 0.00 35 1020.4
20260503180438 20 303 3.2 11.3 0.00 0.00 0.00 32 1020.4
20260503175934 20 282 8.0 11.3 0.00 0.00 0.00 33 1020.5
20260503175432 20 291 1.6 6.4 0.00 0.00 0.00 34 1020.7
20260503174927 20 294 8.0 9.7 0.00 0.00 0.00 36 1020.8
20260503174426 20 265 3.2 9.7 0.00 0.00 0.00 33 1020.8
20260503173926 19 326 6.4 9.7 0.00 0.00 0.00 33 1020.8
20260503173422 19 328 4.8 11.3 0.00 0.00 0.00 35 1021.0
20260503172919 19 262 4.8 8.0 0.00 0.00 0.00 32 1020.8
20260503172417 19 290 4.8 12.9 0.00 0.00 0.00 38 1020.9
20260503171913 20 215 0.0 4.8 0.00 0.00 0.00 35 1021.1
20260503171410 19 266 4.8 9.7 0.00 0.00 0.00 35 1021.2
20260503170907 19 290 6.4 8.0 0.00 0.00 0.00 35 1021.3
20260503170403 20 197 4.8 8.0 0.00 0.00 0.00 35 1021.3